Location: Piotrkow Trybunalski
(51.4000°N, 19.6830°E)
Time: 07:45:41
(UTC+02:00)

STRAND 1 - Pass Details

Date: 25 February 2024
Orbit: 764 x 779 km, 98.4° (Epoch: 24 April)

Event Time Altitude Azimuth Distance (km) Brightness Sun altitude
Rises 05:37:28 0° 180° (S) 3,250 ? -9.9°
Reaches altitude 10° 05:39:51 10° 185° (S) 2,327 ? -9.5°
Maximum altitude 05:44:50 50° 261° (W) 997 ? -8.7°
Drops below altitude 10° 05:49:51 10° 336° (NNW) 2,345 ? -8.0°
Sets 05:52:16 0° 342° (NNW) 3,277 ? -7.6°
